Weather History for Vero Beach, FL

Change the Weather History Date:

Tuesday, June 18, 2013

  Actual Average Record
Temperature  
Mean Temperature 85 °F 80 °F  
Max Temperature 93 °F 89 °F 96 °F (1998)
Min Temperature 77 °F 72 °F 65 °F (1988)
Degree Days  
Heating Degree Days 0 0  
Month to date heating degree days 0 0  
Since 1 June heating degree days 0 0  
Since 1 July heating degree days 398 456  
Cooling Degree Days 20 15  
Month to date cooling degree days 299 265  
Year to date cooling degree days 1206 1071  
Since 1 June cooling degree days 299 265  
Growing Degree Days 36 (Base 50)    
Moisture  
Dew Point 74 °F    
Average Humidity 70    
Maximum Humidity 91    
Minimum Humidity 49    
Precipitation  
Precipitation 0.00 in 0.24 in 4.10 in (1959)
Month to date precipitation 2.96 3.94  
Year to date precipitation 18.18 19.31  
Sea Level Pressure  
Sea Level Pressure 30.04 in    
Wind  
Wind Speed 10 mph (SSE)    
Max Wind Speed 22 mph    
Max Gust Speed 26 mph    
Visibility 10 miles    
Events      
T = Trace of Precipitation, MM = Missing Value Source: NWS Daily Summary

Daily Weather History Graph

Daily Weather History Graph

Search for Another Location

Airport:

Trip Planner

Search our weather history database for the weather conditions in past years. The results will help you decide how hot, cold, wet, or windy it might be!

Date:

Astronomy

Jun. 18, 2013 Rise Set
Actual Time 6:26 AM EDT 8:19 PM EDT
Civil Twilight 5:59 AM EDT 8:46 PM EDT
Nautical Twilight 5:27 AM EDT 9:18 PM EDT
Astronomical Twilight 4:53 AM EDT 9:52 PM EDT
Moon 3:21 PM EDT (6/18) 2:11 AM EDT (6/18)
Length of Visible Light 14h 46m
Length of Day
13h 53m
Waxing Gibbous, 70% of the Moon is Illuminated
Jun 18
Waxing Gibbous
Jun 23
Full
Jun 30
Last Quarter
Jul 8
New
Jul 15
First Quarter

Hourly Weather History & Observations

Time (EDT) Temp. Heat Index Dew Point Humidity Pressure Visibility Wind Dir Wind Speed Gust Speed Precip Events Conditions
12:53 AM 81.0 °F 86.7 °F 75.0 °F 82% 30.06 in 10.0 mi South 8.1 mph - N/A   Clear
1:53 AM 80.1 °F 85.1 °F 75.0 °F 85% 30.06 in 10.0 mi South 6.9 mph - N/A   Scattered Clouds
2:53 AM 79.0 °F - 75.0 °F 88% 30.05 in 10.0 mi South 3.5 mph - N/A   Clear
3:53 AM 80.1 °F 85.1 °F 75.0 °F 85% 30.03 in 10.0 mi SSE 9.2 mph - N/A   Scattered Clouds
4:53 AM 79.0 °F - 75.0 °F 88% 30.03 in 10.0 mi South 5.8 mph - N/A   Clear
5:53 AM 78.1 °F - 75.0 °F 90% 30.04 in 10.0 mi South 4.6 mph - N/A   Clear
6:53 AM 78.1 °F - 75.0 °F 90% 30.05 in 10.0 mi Calm Calm - N/A   Clear
7:53 AM 80.1 °F 85.4 °F 75.9 °F 87% 30.06 in 10.0 mi SSW 4.6 mph - N/A   Clear
8:53 AM 84.9 °F 94.1 °F 75.9 °F 74% 30.08 in 10.0 mi SW 6.9 mph - N/A   Clear
9:53 AM 87.1 °F 95.4 °F 73.9 °F 65% 30.08 in 10.0 mi SSW 6.9 mph - N/A   Scattered Clouds
10:42 AM 89.6 °F 98.2 °F 73.4 °F 59% 30.08 in 10.0 mi SSW 6.9 mph - N/A   Mostly Cloudy
10:53 AM 90.0 °F 97.9 °F 73.0 °F 57% 30.08 in 10.0 mi Variable 4.6 mph - N/A   Mostly Cloudy
11:53 AM 93.0 °F 100.1 °F 71.1 °F 49% 30.07 in 10.0 mi SSE 10.4 mph 16.1 mph N/A   Partly Cloudy
12:53 PM 91.0 °F 101.6 °F 75.0 °F 59% 30.06 in 10.0 mi SE 11.5 mph - N/A   Scattered Clouds
1:53 PM 91.9 °F 101.3 °F 73.9 °F 55% 30.04 in 10.0 mi SE 12.7 mph - N/A   Clear
2:53 PM 91.0 °F 98.2 °F 72.0 °F 53% 30.03 in 10.0 mi SE 15.0 mph - N/A   Partly Cloudy
3:53 PM 90.0 °F 99.0 °F 73.9 °F 59% 30.01 in 10.0 mi ESE 18.4 mph - N/A   Clear
4:53 PM 90.0 °F 99.0 °F 73.9 °F 59% 30.00 in 10.0 mi SE 17.3 mph - N/A   Clear
5:53 PM 88.0 °F 95.6 °F 73.0 °F 61% 29.99 in 10.0 mi SE 19.6 mph 24.2 mph N/A   Clear
6:53 PM 87.1 °F 95.4 °F 73.9 °F 65% 29.99 in 10.0 mi SE 17.3 mph 24.2 mph N/A   Clear
7:53 PM 84.9 °F 92.1 °F 73.9 °F 69% 30.00 in 10.0 mi SE 11.5 mph - N/A   Clear
8:53 PM 82.9 °F 90.2 °F 75.0 °F 77% 30.01 in 10.0 mi SE 11.5 mph - N/A   Clear
9:53 PM 82.9 °F 90.2 °F 75.0 °F 77% 30.01 in 10.0 mi SSE 9.2 mph - N/A   Clear
10:53 PM 82.0 °F 87.9 °F 73.9 °F 76% 30.04 in 10.0 mi South 10.4 mph - N/A   Partly Cloudy
11:53 PM 81.0 °F 86.2 °F 73.9 °F 79% 30.04 in 10.0 mi South 5.8 mph - N/A   Partly Cloudy